Regional Weather Roundup
Issued by NWS

Home | Current Version | Previous Version | Text Only | Print | Product List | Glossary Off
Versions: 1 2 3 4 5 6 7 8 9 10 11 12 13 14 15 16 17 18 19 20 21 22 23 24 25 26 27 28 29 30 31 32 33 34 35 36 37 38 39 40 41 42 43 44 45 46 47 48 49 50

000
ASUS43 KOAX 301802
RWRNE

WEATHER ROUNDUP FOR NEBRASKA
NATIONAL WEATHER SERVICE OMAHA NE
100 PM CDT MON MAY 30 2016

NOTES: SATELLITE DATA IS BEING USED TO AUGMENT CLOUD COVER ABOVE
       12000 FEET.
       "FAIR" INDICATES FEW OR NO CLOUDS BELOW 12,000 FEET WITH NO
       SIGNIFICANT WEATHER AND/OR OBSTRUCTIONS TO VISIBILITY.

  * THESE STATIONS DO NOT REPORT WEATHER SUCH AS RAIN...SNOW OR FOG.

NEZ001>004-019>022-054>056-301900-
NEBRASKA PANHANDLE

CITY           SKY/WX    TMP DP  RH WIND       PRES   REMARKS
SCOTTSBLUFF    SUNNY     79  43  27 NW16      29.94F
6HR MIN TEMP:  49; 6HR MAX TEMP:  79;

ALLIANCE       SUNNY     79  45  29 W14G20    29.91F
6HR MIN TEMP:  51; 6HR MAX TEMP:  79;

CHADRON        SUNNY     80  46  30 W12       29.88F
6HR MIN TEMP:  51; 6HR MAX TEMP:  80;

SIDNEY         SUNNY     79  44  28 SW10      29.96F
6HR MIN TEMP:  52; 6HR MAX TEMP:  79;

$$

NEZ057>060-069>072-079>082-301900-
SOUTHWEST NEBRASKA

CITY           SKY/WX    TMP DP  RH WIND       PRES   REMARKS
NORTH PLATTE   SUNNY     77  55  46 S9        29.93F
6HR MIN TEMP:  53; 6HR MAX TEMP:  78;

IMPERIAL       SUNNY     74  56  53 S14       29.94F
6HR MIN TEMP:  58; 6HR MAX TEMP:  74;

LEXINGTON      SUNNY     77  56  47 S14       29.95F
MCCOOK         SUNNY     78  56  46 S13       29.94F
6HR MIN TEMP:  55; 6HR MAX TEMP:  78;

$$

NEZ005>010-023>029-035>040-094-301900-
NORTH CENTRAL NEBRASKA

CITY           SKY/WX    TMP DP  RH WIND       PRES   REMARKS
VALENTINE      SUNNY     78  52  40 S18       29.88F
6HR MIN TEMP:  55; 6HR MAX TEMP:  78;

AINSWORTH      CLOUDY    76  54  46 S16       29.90F
BROKEN BOW     SUNNY     77  56  48 S10       29.94F
6HR MIN TEMP:  57; 6HR MAX TEMP:  77;

ORD            CLOUDY    79  57  46 SE10      29.93F
6HR MIN TEMP:  57; 6HR MAX TEMP:  79;

$$

NEZ041-046>049-061>064-073>077-083>087-301900-
SOUTH CENTRAL NEBRASKA

CITY           SKY/WX    TMP DP  RH WIND       PRES   REMARKS
GRAND ISLAND   SUNNY     78  61  55 S9        29.96F
6HR MIN TEMP:  61; 6HR MAX TEMP:  79;

HASTINGS       SUNNY     78  61  55 S12G17    29.96F
6HR MIN TEMP:  60; 6HR MAX TEMP:  78;

KEARNEY *      SUNNY     79  55  44 S9G16     29.96F
YORK           CLOUDY    79  57  47 S10       29.96F
$$

NEZ011>018-030>034-042>045-301900-
NORTHEAST NEBRASKA

CITY           SKY/WX    TMP DP  RH WIND       PRES   REMARKS
NORFOLK        CLOUDY    80  57  45 SE15      29.93F
6HR MIN TEMP:  63; 6HR MAX TEMP:  80;

BLAIR          CLOUDY    82  59  46 S8        29.96F
FREMONT        CLOUDY    81  60  49 SE8       29.96F
TEKAMAH        PTSUNNY   83  53  35 S12       29.94F
$$

NEZ050>053-065>068-078-088>093-301900-
SOUTHEAST NEBRASKA

CITY           SKY/WX    TMP DP  RH WIND       PRES   REMARKS
LINCOLN        MOSUNNY   82  61  48 S12       29.96F
6HR MIN TEMP:  63; 6HR MAX TEMP:  83;

OMAHA EPPLEY   CLOUDY    82  60  47 S7        29.96F
6HR MIN TEMP:  63; 6HR MAX TEMP:  82;

FALLS CITY     SUNNY     84  66  54 S10       29.97F
6HR MIN TEMP:  67; 6HR MAX TEMP:  85;

PLATTSMOUTH    MOSUNNY   84  62  47 S5        29.97F
$$

NEZ044-045-051>053-067-301900-
OMAHA AREA

CITY           SKY/WX    TMP DP  RH WIND       PRES   REMARKS
OMAHA EPPLEY   CLOUDY    82  60  47 S7        29.96F
6HR MIN TEMP:  63; 6HR MAX TEMP:  82;

BLAIR          CLOUDY    82  59  46 S8        29.96F
FREMONT        CLOUDY    81  60  49 SE8       29.96F
OFFUTT AFB     MOSUNNY   83  63  51 S6        29.95F
PLATTSMOUTH    MOSUNNY   84  62  47 S5        29.97F
$$




USA.gov is the U.S. government's official web portal to all federal, state and local government web resources and services.